TIME,DELAY(SENSOR),PRES,OXYGEN,RAWTEMP,T(OPTODE),TCPHASE,FLUOR,BETA(BETA700),BETA(BETA412),BETA(BETA440),CDOM,C(CSC),ED(ED411.90),ED(ED443.80),ED(ED489.40),ED(ED554.70),LU(LU412.20),LU(LU443.80),LU(LU489.40),LU(LU555.00),COMP,TILTX,TILTY,CHECK
1352756794,5801,872.5200195312500000,165.1159973144531200,431.3713989257812500,10.0139598846435550,39.6598701477050800,50,101,68,63,53,1554,2147455908,2147790061,2147575616,2147818825,2147308178,2147463789,2147745773,2148270345,3301,6,13,13747
1352760390,5801,9.1999998092651370,189.3928070068359400,498.2715148925781000,7.9342269897460940,39.1070594787597660,50,99,68,62,55,1550,2147441517,2147795136,2147581824,2147826057,2147307465,2147457042,2147763565,2148279140,2467,6,14,10585
1352763990,5804,9.0000000000000000,197.5894012451172000,506.3681945800781000,7.6806511878967285,38.7260284423828100,50,99,66,64,56,1549,2147439094,2147796608,2147581010,2147828269,2147308589,2147454838,2147764717,2148279972,194,6,14,16006
1352767590,5804,9.0000000000000000,199.6351928710937500,509.3410034179687500,7.5874361991882320,38.6520385742187500,50,100,67,62,54,1548,2147440027,2147796717,2147580818,2147829613,2147305517,2147455606,2147765778,2148279552,410,6,14,37242
1352771190,5806,9.1999998092651370,200.7026977539062500,511.5026855468750000,7.5196161270141600,38.6242790222168000,50,99,67,61,55,1546,2147439570,2147797467,2147584128,2147827337,2147307017,2147453083,2147762569,2148277494,2666,6,14,63408
1352774790,5804,9.8999996185302730,202.7454986572265600,513.4819946289062000,7.4574861526489260,38.5339698791503900,50,98,68,62,55,1543,2147436544,2147798793,2147580717,2147827648,2147306093,2147449517,2147764205,2148278656,3483,6,14,11822
1352778390,5806,980.0000000000000000,203.3054962158203000,514.0258789062500000,7.4404101371765140,38.5096015930175800,50,97,68,62,54,1544,2147438144,2147797184,2147585060,2147832027,2147308278,2147453988,2147764288,2148281316,10,6,14,30882
1352781990,5807,9.5000000000000000,203.2960052490234400,514.4873046875000000,7.4259200096130370,38.5179786682128900,50,99,68,63,55,1539,2147438409,2147797394,2147582646,2147828964,2147307821,2147454491,2147765339,2148277083,159,6,15,14075
1352785590,5806,9.1999998092651370,204.3833007812500000,517.3342895507812000,7.3364892005920410,38.5025901794433600,49,97,67,62,54,1537,2147436800,2147798765,2147581220,2147828342,2147307181,2147452534,2147762477,2148280548,4,6,14,62028
1352789190,5805,921.0000000000000000,205.9974975585937500,518.7061157226562000,7.2933759689331055,38.4305610656738300,50,97,70,65,54,1535,2147436809,2147794788,2147582372,2147830345,2147304795,2147453668,2147764690,2148283840,14,6,14,5996
1352792790,5805,941.0000000000000000,206.1224975585937500,518.1348876953125000,7.3113288879394530,38.4130401611328100,50,100,68,62,54,1535,2147440073,2147799634,2147581101,2147831332,2147311634,2147455241,2147763355,2148277942,3397,6,14,24127
1352796390,5802,966.0000000000000000,207.1887969970703000,519.0889892578125000,7.2813401222229000,38.3655395507812500,50,99,67,62,54,1531,2147439296,2147792064,2147583789,2147832594,2147306148,2147452443,2147765174,2148281709,3149,6,14,25242
1352799990,5804,1008.0000000000000000,206.4902954101562500,518.9000854492188000,7.2872757911682130,38.4040412902832000,50,100,68,62,54,1528,2147439405,2147797184,2147582491,2147830025,2147306779,2147455497,2147767542,2148278454,299,6,14,10186
1352803590,5804,1001.0000000000000000,205.9344940185547000,518.7219238281250000,7.2928810119628910,38.4345893859863300,50,98,70,62,54,1528,2147440694,2147796699,2147582381,2147830454,2147308781,2147451894,2147765193,2148280237,234,6,14,8709
1352807190,5804,10.6999998092651370,206.2077026367187500,517.8773193359375000,7.3194270133972170,38.4034194946289060,50,101,68,62,55,1528,2147439469,2147794715,2147583341,2147828096,2147307163,2147454976,2147761024,2148280448,3565,6,15,30932
1352810790,5806,10.5000000000000000,205.7644958496093800,517.9008178710938000,7.3186869621276855,38.4304504394531250,50,107,68,62,55,1528,2147437796,2147802816,2147584064,2147829293,2147311085,2147454290,2147765650,2148278701,3389,6,14,61874
1352814390,5806,962.0000000000000000,204.8269042968750000,518.8265991210938000,7.2895889282226560,38.5028190612793000,50,96,68,62,55,1527,2147440128,2147797056,2147586715,2147832283,2147305014,2147456758,2147760292,2148278034,390,6,15,39834
1352817990,5805,10.0000000000000000,204.8674926757812500,518.8206176757812000,7.2897758483886720,38.5006790161132800,50,97,68,63,54,1530,2147439789,2147799049,2147581412,2147834340,2147305435,2147454162,2147762706,2148278244,222,6,14,60976
1352821590,5802,10.1999998092651370,205.8157958984375000,517.6588134765625000,7.3262910842895510,38.4226417541503900,50,98,69,62,53,1533,2147437504,2147796736,2147583670,2147829878,2147306294,2147453083,2147766089,2148281856,3578,6,14,59294
1352825190,5801,1118.0000000000000000,204.4770965576172000,515.9481811523438000,7.3800349235534670,38.4723701477050800,50,98,69,64,54,1533,2147441846,2147800420,2147582555,2147829604,2147306240,2147453056,2147763520,2148277430,3415,6,15,62810
1352828790,5804,1073.0000000000000000,205.2290039062500000,516.5078735351562000,7.3624529838562010,38.4369201660156250,49,99,68,61,55,1537,2147439424,2147799021,2147583542,2147828580,2147306550,2147453238,2147760859,2148277622,261,6,14,55911
1352832390,5805,11.3000001907348630,204.4866027832031200,515.6840209960938000,7.3883352279663090,38.4677085876464840,50,100,70,63,55,1536,2147437238,2147798656,2147579611,2147827968,2147308891,2147452918,2147760914,2148276205,385,6,14,43033
1352835990,5802,10.1999998092651370,204.5850067138672000,516.5811157226562000,7.3601541519165040,38.4772605895996100,49,101,69,63,53,1537,2147440466,2147794294,2147582034,2147828589,2147305993,2147450889,2147762249,2148279552,516,6,15,7225
1352839590,5808,1035.0000000000000000,205.1587982177734400,517.8308715820312000,7.3208818435668945,38.4651985168457000,50,104,69,62,56,1538,2147437696,2147796736,2147580416,2147829942,2147306258,2147459392,2147762358,2148279222,67,6,14,4944
1352843190,5806,10.1000003814697270,206.7915039062500000,519.0897827148438000,7.2813138961791990,38.3893699645996100,50,98,68,62,54,1540,2147438043,2147799460,2147582683,2147827986,2147308544,2147452544,2147764864,2148278518,3220,6,14,48046
1352846790,5804,10.3000001907348630,206.6757049560547000,518.7039184570312000,7.2934470176696780,38.3895606994628900,50,98,70,63,55,1539,2147437933,2147799670,2147580388,2147829046,2147306331,2147453458,2147762450,2148276836,3448,6,14,46309
1352850390,5804,1073.0000000000000000,206.3562011718750000,518.8389282226562000,7.2892031669616700,38.4109687805175800,49,99,69,63,55,1539,2147439232,2147798317,2147582043,2147828635,2147306688,2147452690,2147761856,2148276205,3480,6,14,752
1352853990,5802,10.8999996185302730,205.6690979003906200,518.9119873046875000,7.2869038581848145,38.4537582397460940,50,99,69,62,54,1538,2147435492,2147802194,2147579410,2147829824,2147307072,2147459337,2147762322,2148277019,3542,6,14,50922
1352857590,5806,10.0000000000000000,206.6972961425781200,520.2166137695312000,7.2458882331848145,38.4150390625000000,50,97,70,62,55,1538,2147438985,2147798363,2147583140,2147830363,2147306733,2147456612,2147764150,2148279296,199,6,14,63842
1352861190,5803,1107.0000000000000000,206.2707977294922000,518.1193847656250000,7.3118162155151370,38.4037284851074200,50,99,69,63,54,1536,2147438537,2147800118,2147582646,2147831195,2147308946,2147452608,2147761380,2148279744,3580,6,15,6448
1352864790,5806,11.5000000000000000,204.2120971679687500,518.1981201171875000,7.3093438148498535,38.5280990600585940,49,96,69,63,55,1541,2147439085,2147799094,2147582902,2147830464,2147307446,2147455579,2147765842,2148279021,3547,6,14,4996
1352868390,5803,1040.0000000000000000,206.6492004394531200,519.4468994140625000,7.2700881958007810,38.4040794372558600,50,99,70,63,54,1541,2147436955,2147800932,2147584740,2147830683,2147306404,2147451830,2147759972,2148280082,363,6,14,23062
1352871990,5806,10.1999998092651370,207.3386993408203000,519.5457763671875000,7.2669768333435060,38.3653106689453100,50,101,69,62,55,1536,2147436233,2147799040,2147583451,2147826240,2147308278,2147452260,2147764653,2148281636,569,6,14,50711
1352875590,5806,10.1000003814697270,207.5307006835937500,520.3560180664062000,7.2415051460266110,38.3685188293457000,50,97,69,62,56,1535,2147435538,2147800201,2147582747,2147829129,2147304384,2147451821,2147764690,2148277787,896,6,15,27406
1352879190,5808,10.6999998092651370,206.7389984130859400,520.5343017578125000,7.2358989715576170,38.4187698364257800,50,98,69,63,54,1539,2147441920,2147799561,2147581632,2147828443,2147307529,2147453760,2147761481,2148277732,68,6,14,27836
1352882790,5804,11.3999996185302730,204.7433929443359400,519.4976196289062000,7.2684941291809080,38.5192909240722660,50,100,68,62,54,1538,2147435446,2147799771,2147583012,2147828352,2147304192,2147454454,2147767835,2148279881,3347,6,14,7687
1352886390,5805,1091.0000000000000000,204.7530975341797000,519.7072143554688000,7.2619051933288570,38.5225105285644500,49,98,69,62,55,1544,2147438436,2147798418,2147581302,2147827538,2147307593,2147457974,2147766317,2148282322,3257,6,14,44808
1352889990,5804,10.6999998092651370,204.3056945800781200,519.6356811523438000,7.2641530036926270,38.5477714538574200,50,99,70,63,55,1541,2147436489,2147798418,2147585398,2147831387,2147307657,2147461056,2147766976,2148278811,3516,6,14,32659
1352893590,5808,1122.0000000000000000,205.1985931396484400,518.7653808593750000,7.2915110588073730,38.4788703918457000,49,98,69,62,54,1540,2147438134,2147798198,2147581120,2147829632,2147307958,2147454756,2147765120,2148279131,373,6,14,31401
1352897190,5806,1131.0000000000000000,203.8486938476562500,517.8201293945312000,7.3212208747863770,38.5434303283691400,50,97,70,62,53,1543,2147436132,2147798226,2147581632,2147827812,2147308434,2147452918,2147766089,2148277549,327,6,14,26181
1352900790,5802,10.3999996185302730,204.8760070800781200,519.4578247070312000,7.2697467803955080,38.5102195739746100,50,99,69,62,54,1544,2147435712,2147797723,2147583259,2147829760,2147307547,2147455643,2147767186,2148280896,105,6,14,56447
1352901056,5804,1090.0000000000000000,204.5827026367187500,519.5399169921875000,7.2671642303466800,38.5302391052246100,50,99,71,63,55,1546,2147440795,2147799634,2147582290,2147828909,2147308544,2147455177,2147764251,2148278107,3561,6,14,30618
